Location: Newark
(42.6681°N, 4.0833°W)
Time: 11:47:46
(UTC+00:00)

N. Korean satellite - Visible Passes

Search period start: 29 September 2020 00:00
Search period end: 09 October 2020 00:00
Orbit: 455 x 503 km, 97.2° (Epoch: 28 September)

Date Brightness Start Highest point End Pass type
(mag) Time Alt. Az. Time Alt. Az. Time Alt. Az.
29 Sep 9.2 05:11:19 10° NE 05:14:19 24° E 05:17:16 10° SSE visible
30 Sep 10.1 04:46:38 10° ENE 04:48:04 12° E 04:49:30 10° ESE visible
02 Oct 8.3 05:26:13 10° NNE 05:29:35 37° E 05:32:53 10° SSE visible
03 Oct 9.7 05:00:52 10° NE 05:03:23 18° E 05:05:52 10° SE visible
05 Oct 7.2 05:41:14 10° NNE 05:44:47 61° E 05:48:13 10° S visible
06 Oct 8.9 05:15:32 10° NE 05:18:37 27° E 05:21:38 10° SSE visible
07 Oct 10.0 04:50:35 10° ENE 04:52:21 13° E 04:54:06 10° ESE visible
